Orbital Elements at Epoch 2459200.5 (2020-Dec-17.0) TDB
Reference: JPL 17 (heliocentric ecliptic J2000)
Element | Value | Uncertainty (1-sigma) | Units |
e | .09600305137731627 | 4.4446e-08 | |
a | 2.299036477763352 | 8.9923e-09 | au |
q | 2.078321960670312 | 1.0215e-07 | au |
i | 4.586767963053451 | 5.8798e-06 | deg |
node | 151.9617118901866 | 4.3661e-05 | deg |
peri | 43.27538515887951 | 5.0861e-05 | deg |
M | 55.68578448850617 | 2.4783e-05 | deg |
tp | 2459003.548604887157 (2020-Jun-03.04860489) | 8.7702e-05 | TDB |
period | 1273.260364236371 3.49 | 7.4702e-06 2.045e-08 | d yr |
n | .2827387155932616 | 1.6588e-09 | deg/d |
Q | 2.519750994856391 | 9.8556e-09 | au |
|
| | Orbit Determination Parameters
Additional Information
|